Change the Weather History Date:

Wednesday, January 15, 2014

  Actual Average Record
Temperature  
Mean Temperature 5 °F -  
Max Temperature 9 °F 6 °F 39 °F (1997)
Min Temperature 1 °F -1 °F -24 °F (2012)
Degree Days  
Heating Degree Days 60    
Moisture  
Dew Point 4 °F    
Average Humidity 92    
Maximum Humidity 100    
Minimum Humidity 85    
Precipitation  
Precipitation 0.00 in - - ()
Sea Level Pressure  
Sea Level Pressure 29.72 in    
Wind  
Wind Speed 3 mph (East)    
Max Wind Speed 7 mph    
Max Gust Speed -    
Visibility 7 miles    
Events Snow    
Averages and records for this station are not official NWS values.
T = Trace of Precipitation, MM = Missing Value Source: NWS Daily Summary

Daily Weather History Graph

Daily Weather History Graph

Search for Another Location

Airport or City:

Trip Planner

Search our weather history database for the weather conditions in past years. The results will help you decide how hot, cold, wet, or windy it might be!

Date:

Astronomy

Jan. 15, 2014 Rise Set
Actual Time 10:36 AM AKST 4:30 PM AKST
Civil Twilight 9:34 AM AKST 5:32 PM AKST
Nautical Twilight 8:34 AM AKST 6:33 PM AKST
Astronomical Twilight 7:39 AM AKST 7:28 PM AKST
Moon 5:05 PM AKST (1/15) 9:36 AM AKST (1/15)
Length of Visible Light 7h 57m
Length of Day
5h 54m
Full, 100% of the Moon is Illuminated
Jan 15
Full
Jan 15
Full
Jan 23
Last Quarter
Jan 30
New
Feb 6
First Quarter

Hourly Weather History & Observations

Time (AKST) Temp. Windchill Dew Point Humidity Pressure Visibility Wind Dir Wind Speed Gust Speed Precip Events Conditions
12:55 AM 2.5 °F - -0.0 °F 89% 29.64 in 10.0 mi West 2.3 mph - 0.00 in Snow Light Snow
1:28 AM 3.2 °F - 1.4 °F 92% 29.66 in 2.0 mi West 2.3 mph - N/A Snow Light Snow
1:43 AM 5.0 °F -2.1 °F 3.2 °F 92% 29.66 in 2.5 mi West 3.5 mph - N/A Snow Light Snow
1:55 AM 5.0 °F -4.1 °F 3.0 °F 92% 29.67 in 7.0 mi West 4.6 mph - 0.00 in Snow Light Snow
2:43 AM 3.2 °F - 1.4 °F 92% 29.69 in 2.0 mi Variable 2.3 mph - N/A Snow Light Snow
2:55 AM 2.8 °F - 0.5 °F 90% 29.69 in 2.5 mi East 2.3 mph - 0.00 in Snow Light Snow
3:13 AM 3.2 °F - 1.4 °F 92% 29.70 in 7.0 mi ENE 2.3 mph - N/A Snow Light Snow
3:43 AM 1.4 °F -6.2 °F -0.4 °F 92% 29.71 in 9.0 mi East 3.5 mph - N/A Snow Light Snow
3:55 AM 2.3 °F -7.2 °F 0.1 °F 91% 29.71 in 10.0 mi NE 4.6 mph - 0.00 in Snow Light Snow
4:28 AM 3.2 °F -4.2 °F -0.4 °F 85% 29.72 in 10.0 mi East 3.5 mph - N/A   Overcast
4:55 AM 2.8 °F - 0.7 °F 91% 29.73 in 10.0 mi ENE 2.3 mph - N/A   Overcast
4:58 AM 3.2 °F - 1.4 °F 92% 29.73 in 9.0 mi NE 2.3 mph - N/A Snow Light Snow Showers
5:13 AM 3.2 °F - 1.4 °F 92% 29.73 in 2.5 mi ENE 2.3 mph - N/A Snow Light Snow
5:28 AM 3.2 °F - 1.4 °F 92% 29.73 in 7.0 mi ESE 2.3 mph - N/A Snow Light Snow
5:55 AM 3.2 °F - 1.2 °F 91% 29.73 in 10.0 mi Variable 2.3 mph - 0.00 in Snow Light Snow Showers
6:28 AM 3.2 °F -4.2 °F 1.4 °F 92% 29.74 in 3.0 mi NE 3.5 mph - N/A Snow Light Snow Showers
6:55 AM 3.4 °F -4.0 °F 1.0 °F 90% 29.74 in 3.0 mi East 3.5 mph - 0.00 in Snow Light Snow Showers
7:13 AM 3.2 °F - 1.4 °F 92% 29.75 in 3.0 mi Variable 2.3 mph - N/A Snow Light Snow Showers
7:28 AM 3.2 °F - 1.4 °F 92% 29.75 in 2.5 mi SE 2.3 mph - N/A Snow Light Snow Showers
7:43 AM 3.2 °F - 1.4 °F 92% 29.75 in 2.0 mi Variable 2.3 mph - N/A Snow Light Snow
7:55 AM 2.8 °F -4.6 °F 0.7 °F 91% 29.75 in 3.0 mi ESE 3.5 mph - 0.00 in Snow Light Snow
7:58 AM 3.2 °F -4.2 °F 1.4 °F 92% 29.75 in 2.5 mi Variable 3.5 mph - N/A Snow Light Snow
8:13 AM 3.2 °F - 1.4 °F 92% 29.75 in 3.0 mi Variable 2.3 mph - N/A Snow Light Snow
8:28 AM 3.2 °F -6.2 °F 1.4 °F 92% 29.76 in 7.0 mi East 4.6 mph - N/A Snow Light Snow
8:55 AM 3.6 °F -3.8 °F 1.6 °F 91% 29.76 in 3.0 mi East 3.5 mph - 0.00 in Snow Light Snow
9:43 AM 3.2 °F -4.2 °F 1.4 °F 92% 29.77 in 10.0 mi East 3.5 mph - N/A Snow Light Snow Showers
9:55 AM 4.6 °F -4.5 °F 2.8 °F 92% 29.77 in 10.0 mi Variable 4.6 mph - 0.00 in Snow Light Snow Showers
10:55 AM 3.9 °F -5.3 °F 1.9 °F 91% 29.78 in 10.0 mi ESE 4.6 mph - 0.00 in Snow Light Snow Showers
11:43 AM 5.0 °F - 3.2 °F 92% 29.78 in 5.0 mi NE 2.3 mph - N/A Snow Light Snow
11:55 AM 5.2 °F - 3.2 °F 92% 29.78 in 10.0 mi Variable 2.3 mph - 0.00 in Snow Light Snow
11:58 AM 5.0 °F - 3.2 °F 92% 29.78 in 10.0 mi ESE 2.3 mph - N/A Snow Light Snow
12:55 PM 5.7 °F - 3.7 °F 92% 29.78 in 9.0 mi East 2.3 mph - 0.00 in Snow Light Snow
1:13 PM 5.0 °F -2.1 °F 3.2 °F 92% 29.78 in 10.0 mi East 3.5 mph - N/A Snow Light Snow
1:43 PM 6.8 °F - 5.0 °F 92% 29.77 in 5.0 mi ESE 2.3 mph - N/A Snow Light Snow
1:55 PM 6.3 °F - 4.3 °F 92% 29.77 in 9.0 mi East 2.3 mph - 0.00 in Snow Light Snow
2:13 PM 6.8 °F - 3.2 °F 85% 29.77 in 9.0 mi East 2.3 mph - N/A Snow Light Snow
2:28 PM 6.8 °F - 5.0 °F 92% 29.77 in 10.0 mi ESE 2.3 mph - N/A Snow Light Snow
2:55 PM 6.8 °F -0.1 °F 5.0 °F 92% 29.77 in 10.0 mi East 3.5 mph - 0.00 in Snow Light Snow
3:13 PM 6.8 °F - 5.0 °F 92% 29.77 in 10.0 mi East 2.3 mph - N/A Snow Light Snow
3:55 PM 8.6 °F -2.6 °F 7.2 °F 94% 29.75 in 10.0 mi East 6.9 mph - 0.00 in Snow Light Snow Showers
4:13 PM 8.6 °F -1.3 °F 6.8 °F 92% 29.75 in 10.0 mi East 5.8 mph - N/A   Overcast
4:28 PM 8.6 °F 0.1 °F 6.8 °F 92% 29.75 in 10.0 mi East 4.6 mph - N/A   Overcast
4:43 PM 8.6 °F 0.1 °F 6.8 °F 92% 29.75 in 10.0 mi East 4.6 mph - N/A Snow Light Snow Showers
4:55 PM 7.9 °F -0.7 °F 6.3 °F 93% 29.74 in 10.0 mi East 4.6 mph - 0.00 in Snow Light Snow Showers
5:13 PM 8.6 °F -1.3 °F 6.8 °F 92% 29.74 in 10.0 mi ENE 5.8 mph - N/A   Overcast
5:55 PM 7.2 °F 0.3 °F 5.4 °F 92% 29.73 in 10.0 mi ESE 3.5 mph - N/A   Mostly Cloudy
6:13 PM 6.8 °F - 6.8 °F 100% 29.73 in 10.0 mi East 2.3 mph - N/A   Mostly Cloudy
6:28 PM 8.6 °F 0.1 °F 6.8 °F 92% 29.72 in 10.0 mi East 4.6 mph - N/A   Mostly Cloudy
6:55 PM 8.6 °F 2.0 °F 7.0 °F 93% 29.71 in 10.0 mi East 3.5 mph - N/A   Mostly Cloudy
7:55 PM 8.8 °F -1.1 °F 7.3 °F 94% 29.69 in 10.0 mi East 5.8 mph - N/A   Overcast
8:13 PM 8.6 °F -1.3 °F 6.8 °F 92% 29.69 in 10.0 mi East 5.8 mph - N/A Snow Light Snow Showers
8:28 PM 8.6 °F -2.6 °F 6.8 °F 92% 29.69 in 10.0 mi East 6.9 mph - N/A   Overcast
8:55 PM 8.4 °F 1.8 °F 6.8 °F 93% 29.68 in 10.0 mi East 3.5 mph - N/A   Overcast
9:43 PM 8.6 °F 2.0 °F 6.8 °F 92% 29.66 in 10.0 mi East 3.5 mph - N/A Snow Light Snow
9:55 PM 8.4 °F -0.1 °F 6.8 °F 93% 29.66 in 10.0 mi Variable 4.6 mph - N/A   Overcast
10:13 PM 8.6 °F 2.0 °F 6.8 °F 92% 29.65 in 10.0 mi East 3.5 mph - N/A Snow Light Snow
10:55 PM 9.0 °F -0.9 °F 7.3 °F 93% 29.63 in 6.0 mi ESE 5.8 mph - 0.00 in Snow Light Snow Showers
11:43 PM 8.6 °F -2.6 °F 6.8 °F 92% 29.62 in 3.0 mi East 6.9 mph - N/A Snow Light Snow
11:55 PM 9.0 °F -0.9 °F 7.3 °F 93% 29.62 in 2.0 mi East 5.8 mph - 0.00 in Snow Light Snow
11:58 PM 8.6 °F -2.6 °F 8.6 °F 100% 29.62 in 1.8 mi East 6.9 mph - N/A Snow Light Snow